DRAGON CRS-26 DEB

Last updated on Sat Jan 21 2023 00:02:07 GMT+0000 (Coordinated Universal Time)

1 55241U 22159B 23020.74582253 .04818367 11855-4 88660-3 0 9991 2 55241 51.6320 334.3882 0046195 197.0094 241.7601 16.28035059 1519

Satellite not in orbit